Home > Weather > Sarpsborg > Past weeks

Flag for Norway Past Weather in Sarpsborg, Norway — Yesterday and Last 2 Weeks

Now
73 °F

Passing clouds.


Feels Like: 76 °F
Forecast: 59 / 76 °F
Wind: 12 mph from Southwest

Location: Rygge

Current Time: Jul 24, 2016 at 6:44:23 PM

Latest Report: Jul 24, 2016 at 5:50 PM


Visibility: N/A

Pressure: 30.09 "Hg

Humidity: 65%

Dew Point: 61 °F

Location of SarpsborgLocation

Past Weather in Sarpsborg — Graph

°F

Sarpsborg Temperature Yesterday

Maximum temperature yesterday: 77 °F (at 1:20 PM)
Minimum temperature yesterday: 59 °F (at 2:50 AM)
Average temperature yesterday: 68 °F

High & Low Weather Summary for the Past Weeks

 TemperatureHumidityPressure
High79 °F (Jul 21, 2:20 PM)100% (Jul 10, 7:50 PM)30.15 "Hg (Jul 10, 7:50 PM)
Low52 °F (Jul 17, 3:50 AM)46% (Jul 9, 9:20 PM)29.45 "Hg (Jul 11, 1:20 PM)
Average64 °F78%29.87 "Hg
* Reported Jul 9 5:20 PM — Jul 24 5:20 PM, Sarpsborg, Weather by CustomWeather, © 2016

Note: Actual official high and low records may vary slightly from our data, if they occured in-between our weather recording intervals... More about our weather records

Advertising

Sarpsborg Weather History for the Previous 24 Hours

Scroll right to see more
 ConditionsComfort  
Time TempWeatherWind HumidityBarometerVisibility
5:20 PM
Sun, Jul 24
75 °FSunny.12 mph61%30.09 "Hg10 mi
4:50 PM73 °FSunny.12 mph57%30.09 "Hg10 mi
4:20 PM75 °FSunny.12 mph54%30.12 "Hg10 mi
3:50 PM75 °FSunny.10 mph54%30.12 "Hg10 mi
3:20 PM75 °FPassing clouds.10 mph54%30.12 "HgN/A
2:50 PM75 °FSunny.13 mph54%30.12 "Hg10 mi
2:20 PM75 °FPassing clouds.10 mph54%30.12 "HgN/A
1:20 PM73 °FPassing clouds.8 mph65%30.12 "HgN/A
12:50 PM73 °FPassing clouds.9 mph65%30.12 "HgN/A
12:20 PM73 °FPassing clouds.7 mph69%30.12 "HgN/A
11:50 AM72 °FPassing clouds.8 mph69%30.12 "HgN/A
11:20 AM73 °FPassing clouds.7 mph65%30.12 "HgN/A
10:50 AM70 °FPassing clouds.8 mph73%30.12 "HgN/A
10:20 AM72 °FPassing clouds.6 mph73%30.12 "HgN/A
9:50 AM70 °FPassing clouds.5 mph78%30.12 "HgN/A
9:20 AM68 °FScattered clouds.2 mph83%30.12 "HgN/A
8:50 AM68 °FScattered clouds.2 mph83%30.12 "HgN/A
8:20 AM64 °FScattered clouds.1 mph94%30.12 "HgN/A
7:50 AM64 °FScattered clouds.2 mph94%30.12 "Hg6 mi
7:20 AM63 °FPartly sunny.1 mph94%30.12 "HgN/A
6:50 AM63 °FPartly sunny.3 mph94%30.12 "HgN/A
6:20 AM63 °FScattered clouds.3 mph94%30.12 "HgN/A
5:50 AM61 °FBroken clouds.2 mph94%30.12 "HgN/A
5:20 AM61 °FPassing clouds.3 mph94%30.12 "Hg5 mi
4:50 AM61 °FPassing clouds.5 mph94%30.12 "HgN/A
4:20 AM59 °FCool.1 mph94%30.12 "HgN/A
3:50 AM61 °FPassing clouds.6 mph88%30.12 "HgN/A
3:20 AM59 °FPassing clouds.3 mph94%30.12 "HgN/A
2:50 AM61 °FPassing clouds.3 mph88%30.12 "HgN/A
2:20 AM63 °FPassing clouds.5 mph88%30.12 "HgN/A
1:50 AM59 °FPassing clouds.2 mph94%30.12 "HgN/A
1:20 AM63 °FPassing clouds.5 mph88%30.12 "HgN/A
12:50 AM63 °FPassing clouds.5 mph88%30.12 "HgN/A
12:20 AM63 °FClear.2 mph83%30.12 "Hg10 mi
11:50 PM
Sat, Jul 23
64 °FClear.6 mph83%30.12 "Hg10 mi
11:20 PM64 °FClear.6 mph83%30.12 "Hg10 mi
10:50 PM66 °FSunny.3 mph78%30.12 "Hg10 mi
10:20 PM66 °FSunny.5 mph78%30.12 "Hg10 mi
9:50 PM66 °FPassing clouds.6 mph78%30.12 "HgN/A
9:20 PM68 °FPassing clouds.6 mph78%30.12 "HgN/A
8:50 PM70 °FPassing clouds.5 mph69%30.12 "HgN/A
8:20 PM72 °FSunny.6 mph65%30.12 "Hg10 mi
7:50 PM72 °FSunny.5 mph69%30.12 "Hg10 mi
7:20 PM72 °FSunny.6 mph65%30.12 "Hg10 mi
6:50 PM72 °FSunny.6 mph65%30.12 "Hg10 mi
6:20 PM72 °FSunny.6 mph65%30.12 "Hg10 mi
Weather by CustomWeather, © 2016

See weather overviewHow to use our weather pages